This is the latest recevied weather packets stored in our database for station/object K5WNG. If no packets are shown the sender has not sent any weather packets the latest 10 day(s).
| Time | Temp. | Humidity | Pressure | Rain* | Wind** | Luminosity | Snow |
|---|---|---|---|---|---|---|---|
| 1777429221 | 27.22° C | 77% | 1010.6 hPa | 0 mm | - | 0 W/m² | - |
| 1777428921 | 27.22° C | 77% | 1010.7 hPa | 0 mm | - | 0 W/m² | - |
| 1777428616 | 27.78° C | 76% | 1010.7 hPa | 0 mm | - | 0 W/m² | - |
| 1777428316 | 27.78° C | 76% | 1010.7 hPa | 0 mm | - | 0 W/m² | - |
| 1777428015 | 27.22° C | 76% | 1010.7 hPa | 0 mm | - | 0 W/m² | - |
| 1777427723 | 27.22° C | 77% | 1010.5 hPa | 0 mm | - | 0 W/m² | - |
| 1777427416 | 27.78° C | 77% | 1010.4 hPa | 0 mm | - | 0 W/m² | - |
| 1777427118 | 27.78° C | 77% | 1010.2 hPa | 0 mm | - | 0 W/m² | - |
| 1777426819 | 27.78° C | 77% | 1010.2 hPa | 0 mm | - | 0 W/m² | - |
| 1777426519 | 27.78° C | 77% | 1010.1 hPa | 0 mm | - | 0 W/m² | - |
| 1777426216 | 27.78° C | 77% | 1010 hPa | 0 mm | - | 0 W/m² | - |
| 1777425919 | 27.78° C | 77% | 1009.9 hPa | 0 mm | - | 0 W/m² | - |
| 1777425615 | 27.78° C | 77% | 1009.7 hPa | 0 mm | - | 1 W/m² | - |
| 1777425316 | 28.33° C | 77% | 1009.7 hPa | 0 mm | - | 2 W/m² | - |
| 1777425016 | 28.33° C | 77% | 1009.6 hPa | 0 mm | - | 3 W/m² | - |
| 1777424719 | 28.33° C | 77% | 1009.4 hPa | 0 mm | - | 6 W/m² | - |
| 1777424416 | 28.33° C | 76% | 1009.5 hPa | 0 mm | - | 9 W/m² | - |
| 1777424116 | 28.89° C | 76% | 1009.6 hPa | 0 mm | - | 15 W/m² | - |
| 1777423819 | 28.89° C | 76% | 1009.4 hPa | 0 mm | - | 19 W/m² | - |
| 1777423516 | 28.89° C | 75% | 1009.5 hPa | 0 mm | - | 23 W/m² | - |
| 1777423219 | 28.89° C | 75% | 1009.4 hPa | 0 mm | - | 26 W/m² | - |
| 1777422917 | 29.44° C | 75% | 1009.4 hPa | 0 mm | - | 37 W/m² | - |
| 1777422616 | 29.44° C | 75% | 1009.3 hPa | 0 mm | - | 40 W/m² | - |
| 1777422316 | 29.44° C | 75% | 1009.3 hPa | 0 mm | - | 39 W/m² | - |
| 1777422016 | 30° C | 75% | 1009.3 hPa | 0 mm | - | 50 W/m² | - |
* Rain latest hour (hover to see other rain measurements)
** Current wind speed in m/s (hover to see current wind gust speed)